TimeMST,TemperatureF,Dew PointF,Humidity,Sea Level PressureIn,VisibilityMPH,Wind Direction,Wind SpeedMPH,Gust SpeedMPH,PrecipitationIn,Events,Conditions,WindDirDegrees,DateUTC
12:15 AM,68.0,28.4,23,29.90,9.0,Calm,Calm,-,N/A,,Overcast,0,2013-04-05 07:15:00
12:35 AM,68.0,28.4,23,29.91,10.0,Calm,Calm,-,N/A,,Overcast,0,2013-04-05 07:35:00
12:55 AM,68.0,28.4,23,29.91,10.0,NE,3.5,-,N/A,,Overcast,40,2013-04-05 07:55:00
1:15 AM,68.0,28.4,23,29.91,10.0,Calm,Calm,-,N/A,,Overcast,0,2013-04-05 08:15:00
1:35 AM,69.8,28.4,21,29.91,10.0,Calm,Calm,-,N/A,,Overcast,0,2013-04-05 08:35:00
1:55 AM,66.2,28.4,24,29.91,10.0,West,4.6,-,N/A,,Overcast,270,2013-04-05 08:55:00
2:15 AM,66.2,32.0,28,29.91,10.0,WNW,3.5,-,N/A,,Mostly Cloudy,300,2013-04-05 09:15:00
2:35 AM,66.2,28.4,24,29.91,10.0,Calm,Calm,-,N/A,,Clear,0,2013-04-05 09:35:00
2:55 AM,66.2,28.4,24,29.91,10.0,Calm,Calm,-,N/A,,Clear,0,2013-04-05 09:55:00
3:15 AM,62.6,28.4,27,29.90,10.0,Calm,Calm,-,N/A,,Clear,0,2013-04-05 10:15:00
3:35 AM,62.6,26.6,26,29.91,10.0,Calm,Calm,-,N/A,,Clear,0,2013-04-05 10:35:00
3:55 AM,64.4,26.6,24,29.90,10.0,Calm,Calm,-,N/A,,Clear,0,2013-04-05 10:55:00
4:15 AM,62.6,28.4,27,29.90,10.0,Calm,Calm,-,N/A,,Clear,0,2013-04-05 11:15:00
4:35 AM,62.6,28.4,27,29.90,10.0,Calm,Calm,-,N/A,,Clear,0,2013-04-05 11:35:00
4:55 AM,60.8,30.2,31,29.90,10.0,ENE,3.5,-,N/A,,Clear,60,2013-04-05 11:55:00
5:15 AM,62.6,30.2,30,29.90,10.0,East,4.6,-,N/A,,Clear,90,2013-04-05 12:15:00
5:35 AM,60.8,32.0,34,29.90,10.0,East,6.9,-,N/A,,Clear,80,2013-04-05 12:35:00
5:55 AM,60.8,33.8,36,29.91,10.0,SE,4.6,-,N/A,,Clear,130,2013-04-05 12:55:00
6:15 AM,59.0,35.6,42,29.91,10.0,East,3.5,-,N/A,,Clear,80,2013-04-05 13:15:00
6:35 AM,59.0,35.6,42,29.92,10.0,Calm,Calm,-,N/A,,Clear,0,2013-04-05 13:35:00
6:55 AM,59.0,35.6,42,29.93,10.0,North,4.6,-,N/A,,Clear,350,2013-04-05 13:55:00
7:15 AM,62.6,35.6,37,29.93,10.0,North,4.6,-,N/A,,Clear,360,2013-04-05 14:15:00
7:35 AM,66.2,35.6,32,29.94,10.0,North,3.5,-,N/A,,Clear,350,2013-04-05 14:35:00
7:55 AM,68.0,35.6,30,29.94,10.0,WNW,3.5,-,N/A,,Clear,290,2013-04-05 14:55:00
8:15 AM,69.8,37.4,31,29.94,10.0,West,3.5,-,N/A,,Clear,260,2013-04-05 15:15:00
8:35 AM,69.8,37.4,31,29.95,10.0,Calm,Calm,-,N/A,,Clear,0,2013-04-05 15:35:00
8:55 AM,71.6,39.2,31,29.95,9.0,Calm,Calm,-,N/A,,Clear,0,2013-04-05 15:55:00
9:15 AM,73.4,37.4,27,29.95,10.0,SSW,6.9,-,N/A,,Clear,210,2013-04-05 16:15:00
9:35 AM,73.4,39.2,29,29.95,10.0,South,4.6,-,N/A,,Clear,170,2013-04-05 16:35:00
9:55 AM,75.2,39.2,27,29.94,10.0,SSE,6.9,-,N/A,,Clear,160,2013-04-05 16:55:00
10:15 AM,75.2,39.2,27,29.94,10.0,South,9.2,-,N/A,,Clear,180,2013-04-05 17:15:00
10:35 AM,77.0,37.4,24,29.94,10.0,South,6.9,-,N/A,,Clear,180,2013-04-05 17:35:00
10:55 AM,78.8,37.4,23,29.94,10.0,South,8.1,-,N/A,,Clear,190,2013-04-05 17:55:00
11:15 AM,80.6,35.6,20,29.94,10.0,SW,11.5,-,N/A,,Clear,220,2013-04-05 18:15:00
11:35 AM,80.6,35.6,20,29.93,10.0,SW,9.2,-,N/A,,Clear,220,2013-04-05 18:35:00
11:55 AM,80.6,33.8,18,29.93,10.0,WSW,9.2,-,N/A,,Clear,250,2013-04-05 18:55:00
12:15 PM,82.4,33.8,17,29.92,9.0,SW,8.1,17.3,N/A,,Clear,220,2013-04-05 19:15:00
12:35 PM,82.4,32.0,16,29.91,10.0,WSW,15.0,-,N/A,,Clear,240,2013-04-05 19:35:00
12:55 PM,82.4,30.2,15,29.90,10.0,WSW,5.8,16.1,N/A,,Clear,240,2013-04-05 19:55:00
1:15 PM,84.2,32.0,15,29.89,10.0,WSW,6.9,-,N/A,,Clear,250,2013-04-05 20:15:00
1:35 PM,84.2,32.0,15,29.88,10.0,West,6.9,-,N/A,,Clear,260,2013-04-05 20:35:00
1:55 PM,84.2,32.0,15,29.87,10.0,WSW,8.1,17.3,N/A,,Clear,250,2013-04-05 20:55:00
2:15 PM,86.0,32.0,14,29.86,10.0,West,10.4,18.4,N/A,,Clear,260,2013-04-05 21:15:00
2:35 PM,86.0,28.4,12,29.85,10.0,WSW,11.5,16.1,N/A,,Clear,250,2013-04-05 21:35:00
2:55 PM,86.0,32.0,14,29.85,10.0,SSW,11.5,16.1,N/A,,Clear,210,2013-04-05 21:55:00
3:15 PM,86.0,28.4,12,29.84,10.0,WSW,15.0,19.6,N/A,,Clear,250,2013-04-05 22:15:00
3:35 PM,86.0,26.6,12,29.85,10.0,WSW,10.4,19.6,N/A,,Clear,250,2013-04-05 22:35:00
3:55 PM,86.0,26.6,12,29.84,10.0,West,6.9,-,N/A,,Clear,270,2013-04-05 22:55:00
4:15 PM,86.0,26.6,12,29.84,10.0,WNW,12.7,16.1,N/A,,Clear,290,2013-04-05 23:15:00
4:35 PM,86.0,26.6,12,29.83,10.0,West,10.4,-,N/A,,Clear,280,2013-04-05 23:35:00
4:55 PM,86.0,26.6,12,29.83,10.0,West,3.5,-,N/A,,Clear,270,2013-04-05 23:55:00
5:15 PM,86.0,26.6,12,29.83,10.0,WNW,6.9,-,N/A,,Clear,300,2013-04-06 00:15:00
5:35 PM,86.0,26.6,12,29.82,10.0,WNW,6.9,-,N/A,,Clear,290,2013-04-06 00:35:00
5:55 PM,84.2,26.6,12,29.82,10.0,Calm,Calm,-,N/A,,Clear,0,2013-04-06 00:55:00
6:15 PM,84.2,28.4,13,29.82,10.0,SW,4.6,-,N/A,,Clear,220,2013-04-06 01:15:00
6:35 PM,82.4,28.4,14,29.82,8.0,West,3.5,-,N/A,,Clear,270,2013-04-06 01:35:00
6:55 PM,80.6,28.4,15,29.82,10.0,West,5.8,-,N/A,,Clear,280,2013-04-06 01:55:00
7:15 PM,80.6,28.4,15,29.82,10.0,West,4.6,-,N/A,,Clear,270,2013-04-06 02:15:00
7:35 PM,77.0,30.2,18,29.83,10.0,WSW,5.8,-,N/A,,Clear,250,2013-04-06 02:35:00
7:55 PM,75.2,28.4,18,29.84,10.0,WSW,8.1,-,N/A,,Clear,240,2013-04-06 02:55:00
8:15 PM,71.6,32.0,23,29.85,10.0,WSW,6.9,-,N/A,,Clear,250,2013-04-06 03:15:00
8:35 PM,71.6,32.0,23,29.86,10.0,West,8.1,-,N/A,,Partly Cloudy,260,2013-04-06 03:35:00
8:55 PM,71.6,28.4,20,29.87,10.0,West,8.1,-,N/A,,Mostly Cloudy,260,2013-04-06 03:55:00
9:15 PM,71.6,28.4,20,29.88,10.0,WSW,6.9,-,N/A,,Scattered Clouds,240,2013-04-06 04:15:00
9:35 PM,71.6,28.4,20,29.88,10.0,SW,5.8,-,N/A,,Clear,220,2013-04-06 04:35:00
9:55 PM,68.0,32.0,26,29.88,10.0,South,3.5,-,N/A,,Clear,180,2013-04-06 04:55:00
10:15 PM,68.0,32.0,26,29.88,10.0,South,3.5,-,N/A,,Clear,180,2013-04-06 05:15:00
10:35 PM,68.0,32.0,26,29.87,10.0,SW,4.6,-,N/A,,Clear,220,2013-04-06 05:35:00
10:55 PM,68.0,32.0,26,29.87,10.0,SSW,3.5,-,N/A,,Clear,200,2013-04-06 05:55:00
11:15 PM,66.2,28.4,24,29.88,10.0,Calm,Calm,-,N/A,,Clear,0,2013-04-06 06:15:00
11:35 PM,64.4,26.6,24,29.88,10.0,North,3.5,-,N/A,,Clear,360,2013-04-06 06:35:00
11:55 PM,64.4,24.8,22,29.88,10.0,North,4.6,-,N/A,,Clear,350,2013-04-06 06:55:00